Other Public Products
Issued by NWS Charleston, SC

Current Version | Previous Version | Graphics & Text | Print | Product List | Glossary On
Versions: 1 2 3 4 5 6 7 8 9 10 11 12 13 14 15 16 17 18 19 20 21 22 23 24 25 26 27 28 29 30 31 32 33 34 35 36 37 38 39 40 41 42 43 44 45 46 47 48 49 50
210
FPUS82 KCHS 211612
OPUCHS

TEST...KCHS/KSAV Gateway Observations...TEST
National Weather Service Charleston SC
1100 AM EST SUN JAN 21 2018

NOTE: "fair" indicates few or no clouds below 12,000 feet with no
significant weather and/or obstructions to visibility.

SCZ050-WAZ558-NCZ071-TXZ119-213-PAZ071-DCZ001-FLZ074-172-MI076-
NYZ176-178-MAZ016-IL014-TNZ027-NJZ106-GAZ044-MD014-211700-

...Gateway Observations for Charleston International...

CITY           SKY/WX    TMP DP  RH WIND       PRES   REMARKS
Chas Airport   FAIR      59  38  45 CALM      30.28F
Seattle        CLOUDY    48  39  71 S22G31    29.73F
Charlotte      FAIR      56  40  55 SE3       30.28S
Dallas DFW     PTSUNNY   70  61  73 S23G30    29.87S
Dallas Love    PTSUNNY   69  61  75 S18G29    29.89S
Philladelphia  CLOUDY    46  33  60 S5        30.23R
Wash National  CLOUDY    45  34  65 CALM      30.24R
Baltimore      PTSUNNY   50  37  61 CALM      30.22S
Miami          CLOUDY    77  66  68 E12       30.20R
Detroit        FOG       37  37 100 SW6       30.07S VSB 1/4 WCI  32
Newark         PTSUNNY   49  29  46 NW9       30.19S
Laguardia      PTSUNNY   46  29  51 NW9       30.19R
J F K          PTSUNNY   48  29  47 N9        30.19S
Boston Logan   FAIR      45  31  58 W6        30.15S
Ft. Lauderdale FAIR      75  66  73 E15       30.19R
Chicago O`Hare FOG       40  39  97 CALM      29.97S VSB 1/2
Chicago Midway CLOUDY    42  41  96 S3        29.98S FOG
Houston Bush   CLOUDY    69  65  86 S8        30.02R
Houston Hobby  PTSUNNY   70  67  90 SE10      30.02R
Nashville      PTSUNNY   61  46  57 SW14G22   30.19F
Atlanta        FAIR      59  42  53 CALM      30.29R

$$

GAZ044-118-TXZ119-213-NCZ071-DCZ001-MDZ014-506-PAZ021-071-NJZ106-
NYZ176-178-MAZ106-OHZ011-021-055-MIZ076-KYZ091-ILZ014-INZ047-
MNZ060-ONZ431-211700-

...Gateway Observations for Savannah International...

CITY           SKY/WX    TMP DP  RH WIND       PRES   REMARKS
Savannah Arpt  FAIR      62  38  40 SE3       30.30F
Atlanta        FAIR      59  42  53 CALM      30.29R
Charlotte      FAIR      56  40  55 SE3       30.28S
Dallas DFW     PTSUNNY   70  61  73 S23G30    29.87S
Houston Bush   CLOUDY    69  65  86 S8        30.02R
Wash National  CLOUDY    45  34  65 CALM      30.24R
Wash Dulles    PTSUNNY   54  37  52 S7        30.21S
Baltimore      PTSUNNY   50  37  61 CALM      30.22S
Philadelphia   CLOUDY    46  33  60 S5        30.23R
Newark         PTSUNNY   49  29  46 NW9       30.19S
Laguardia      PTSUNNY   46  29  51 NW9       30.19R
J F K          PTSUNNY   48  29  47 N9        30.19S
Boston         FAIR      45  31  58 W6        30.15S
Pittsburg      CLOUDY    45  43  93 SW6       30.14R
Akron          FOG       40  38  93 S8        30.11S VSB 1/8 WCI  34
Cleveland      CLOUDY    42  41  96 S7        30.13S FOG
Cincinnati     CLOUDY    52  44  74 S10       30.11S
Columbus       CLOUDY    44  39  85 S7        30.11S
Detroit        FOG       37  37 100 SW6       30.07S VSB 1/4 WCI  32
Chicago O`Hare FOG       40  39  97 CALM      29.97S VSB 1/2
Minneapolis    CLOUDY    36  30  79 NE3       29.99R
Indianapolis   FOG       46  45  96 S6        30.06S VSB 1/2
Toronto Canada MOSUNNY   37  30  75 VRB2      30.09S

$$




USA.gov is the U.S. government's official web portal to all federal, state and local government web resources and services.